GW7241 Weather Reports


Display with metric or nautical units.
time (UTC)temp
F
wind
direction
speed
MPH
gust
MPH
rain 1hr
in
rain 24hr
in
rain mn
in
humidity
%
barometer
mb
20260510220229 78 189 1.0 1.0 0.00 0.00 0.00 76 1016.3
20260510215726 78 211 2.0 4.0 0.00 0.00 0.00 76 1016.1
20260510215224 78 281 3.0 4.0 0.00 0.00 0.00 76 1016.1
20260510214721 79 189 2.0 3.0 0.00 0.00 0.00 75 1016.1
20260510214218 79 188 0.0 0.0 0.00 0.00 0.00 75 1016.3
20260510213715 80 206 2.0 3.0 0.00 0.00 0.00 73 1016.1
20260510213211 80 191 0.0 0.0 0.00 0.00 0.00 74 1016.1
20260510212707 79 246 2.0 3.0 0.00 0.00 0.00 74 1016.2
20260510212205 79 161 1.0 1.0 0.00 0.00 0.00 74 1016.2
20260510211702 78 204 0.0 1.0 0.00 0.00 0.00 77 1016.0
20260510211156 77 172 1.0 2.0 0.00 0.00 0.00 75 1016.2
20260510210653 78 216 2.0 3.0 0.00 0.00 0.00 74 1016.2
20260510210148 79 191 2.0 2.0 0.00 0.00 0.00 74 1016.2
20260510205648 79 238 2.0 2.0 0.00 0.00 0.00 74 1016.2
20260510205144 79 216 3.0 3.0 0.00 0.00 0.00 74 1016.3
20260510204640 80 236 3.0 4.0 0.00 0.00 0.00 71 1016.4
20260510204137 80 180 0.0 1.0 0.00 0.00 0.00 70 1016.1
20260510203634 81 150 2.0 2.0 0.00 0.00 0.00 67 1016.1
20260510203131 81 176 0.0 0.0 0.00 0.00 0.00 70 1016.1
20260510202630 81 181 3.0 4.0 0.00 0.00 0.00 67 1016.2
20260510202126 81 163 1.0 2.0 0.00 0.00 0.00 68 1016.3
20260510201624 81 110 2.0 2.0 0.00 0.00 0.00 66 1016.3
20260510201120 82 167 1.0 2.0 0.00 0.00 0.00 67 1016.2
20260510200616 81 180 1.0 1.0 0.00 0.00 0.00 71 1016.2
20260510200114 80 205 1.0 1.0 0.00 0.00 0.00 70 1016.2
20260510195612 80 219 2.0 2.0 0.00 0.00 0.00 68 1016.3
20260510195108 80 146 3.0 6.0 0.00 0.00 0.00 70 1016.4
20260510194607 81 223 4.0 4.0 0.00 0.00 0.00 68 1016.2
20260510194104 81 196 3.0 3.0 0.00 0.00 0.00 68 1016.4
20260510193604 81 191 3.0 4.0 0.00 0.00 0.00 69 1016.3
20260510193100 80 214 2.0 2.0 0.00 0.00 0.00 70 1016.4
20260510192555 81 216 3.0 4.0 0.00 0.00 0.00 69 1016.5
20260510192051 80 177 1.0 1.0 0.00 0.00 0.00 69 1016.5
20260510191548 81 180 3.0 4.0 0.00 0.00 0.00 68 1016.9
20260510191045 81 169 1.0 1.0 0.00 0.00 0.00 68 1016.5
20260510190542 80 201 2.0 6.0 0.00 0.00 0.00 69 1016.6
20260510190040 81 240 3.0 6.0 0.00 0.00 0.00 68 1016.6
20260510185536 81 223 2.0 3.0 0.00 0.00 0.00 70 1016.9
20260510185034 81 222 2.0 3.0 0.00 0.00 0.00 68 1016.9
20260510184531 81 170 1.0 1.0 0.00 0.00 0.00 68 1016.8
20260510184026 81 195 1.0 1.0 0.00 0.00 0.00 70 1016.9
20260510183522 80 212 3.0 4.0 0.00 0.00 0.00 71 1017.0
20260510183017 80 197 2.0 2.0 0.00 0.00 0.00 72 1017.2
20260510182515 81 238 2.0 3.0 0.00 0.00 0.00 72 1017.1
20260510182014 81 206 1.0 2.0 0.00 0.00 0.00 73 1017.1
20260510181513 81 197 1.0 2.0 0.00 0.00 0.00 74 1017.1
20260510181009 80 214 2.0 3.0 0.00 0.00 0.00 75 1017.2
20260510180506 80 106 2.0 2.0 0.00 0.00 0.00 73 1017.2
20260510180004 80 162 2.0 2.0 0.00 0.00 0.00 72 1017.2
20260510175458 80 216 3.0 4.0 0.00 0.00 0.00 70 1017.2
20260510174954 80 165 2.0 7.0 0.00 0.00 0.00 69 1017.5
20260510174453 81 217 2.0 4.0 0.00 0.00 0.00 68 1017.1
20260510173949 81 91 3.0 4.0 0.00 0.00 0.00 67 1017.3
20260510173445 81 153 3.0 4.0 0.00 0.00 0.00 68 1017.1
20260510172942 81 102 2.0 3.0 0.00 0.00 0.00 68 1017.4
20260510172437 81 166 2.0 3.0 0.00 0.00 0.00 67 1017.3
20260510171934 80 111 2.0 3.0 0.00 0.00 0.00 68 1017.1
20260510171431 81 174 2.0 3.0 0.00 0.00 0.00 65 1017.3
20260510170928 81 193 3.0 3.0 0.00 0.00 0.00 67 1017.4
20260510170424 80 159 0.0 1.0 0.00 0.00 0.00 66 1017.4
20260510165920 80 177 3.0 3.0 0.00 0.00 0.00 68 1017.5
20260510165416 82 109 1.0 2.0 0.00 0.00 0.00 68 1017.8
20260510164913 81 116 1.0 1.0 0.00 0.00 0.00 70 1017.7
20260510164411 80 142 0.0 1.0 0.00 0.00 0.00 71 1017.6
20260510163910 80 120 0.0 1.0 0.00 0.00 0.00 70 1017.5
20260510163402 80 153 1.0 1.0 0.00 0.00 0.00 69 1017.4
20260510162901 80 96 3.0 6.0 0.00 0.00 0.00 69 1017.5
20260510162359 80 168 1.0 1.0 0.00 0.00 0.00 71 1017.3
20260510161854 81 67 1.0 2.0 0.00 0.00 0.00 70 1017.5
20260510161350 80 171 1.0 1.0 0.00 0.00 0.00 72 1017.5
20260510160848 80 129 1.0 2.0 0.00 0.00 0.00 70 1017.3
20260510160345 79 123 1.0 1.0 0.00 0.00 0.00 72 1017.4
20260510155838 79 134 0.0 1.0 0.00 0.00 0.00 73 1017.4
20260510155336 79 127 1.0 2.0 0.00 0.00 0.00 71 1017.5
20260510154831 79 175 1.0 2.0 0.00 0.00 0.00 71 1017.4
20260510154327 79 101 2.0 3.0 0.00 0.00 0.00 72 1017.7
20260510153827 79 94 1.0 1.0 0.00 0.00 0.00 73 1017.5
20260510153324 78 124 1.0 1.0 0.00 0.00 0.00 73 1017.6
20260510152821 78 80 1.0 2.0 0.00 0.00 0.00 74 1017.8
20260510152318 78 149 1.0 1.0 0.00 0.00 0.00 76 1017.8
20260510151814 78 99 2.0 2.0 0.00 0.00 0.00 75 1017.5
20260510151312 78 96 1.0 1.0 0.00 0.00 0.00 75 1017.7
20260510150808 78 134 1.0 1.0 0.00 0.00 0.00 76 1017.7
20260510150303 77 168 2.0 2.0 0.00 0.00 0.00 77 1017.6
20260510145759 77 102 1.0 1.0 0.00 0.00 0.00 78 1017.6
20260510145257 77 129 2.0 2.0 0.00 0.00 0.00 77 1017.7
20260510144753 77 133 1.0 1.0 0.00 0.00 0.00 79 1017.7
20260510144250 76 145 1.0 1.0 0.00 0.00 0.00 81 1018.0
20260510143749 75 168 0.0 1.0 0.00 0.00 0.00 81 1018.0
20260510143246 75 150 0.0 1.0 0.00 0.00 0.00 80 1017.7
20260510142742 76 132 2.0 2.0 0.00 0.00 0.00 80 1017.8
20260510142239 76 112 1.0 1.0 0.00 0.00 0.00 80 1017.8
20260510141736 75 91 1.0 1.0 0.00 0.00 0.00 81 1017.6
20260510141235 75 154 2.0 2.0 0.00 0.00 0.00 83 1017.6
20260510140731 74 146 1.0 1.0 0.00 0.00 0.00 83 1017.6
20260510140226 74 137 1.0 1.0 0.00 0.00 0.00 83 1017.6
20260510135720 74 129 1.0 1.0 0.00 0.00 0.00 84 1017.7
20260510135216 73 147 0.0 0.0 0.00 0.00 0.00 86 1017.5
20260510134714 73 125 0.0 1.0 0.00 0.00 0.00 86 1017.5
20260510134211 72 124 1.0 1.0 0.00 0.00 0.00 87 1017.3
20260510133706 72 119 1.0 1.0 0.00 0.00 0.00 87 1017.3
20260510133202 72 66 3.0 6.0 0.00 0.00 0.00 87 1017.3
20260510132659 72 103 1.0 2.0 0.00 0.00 0.00 88 1017.3
20260510132156 72 137 1.0 1.0 0.00 0.00 0.00 88 1017.3
20260510131654 72 143 1.0 1.0 0.00 0.00 0.00 87 1017.4
20260510131151 73 80 3.0 4.0 0.00 0.00 0.00 89 1017.3
20260510130647 72 149 0.0 0.0 0.00 0.00 0.00 90 1017.4
20260510130144 71 151 0.0 0.0 0.00 0.00 0.00 91 1017.2
20260510125640 71 146 0.0 0.0 0.00 0.00 0.00 92 1017.0
20260510125137 70 161 0.0 0.0 0.00 0.00 0.00 93 1017.0
20260510124634 70 153 0.0 1.0 0.00 0.00 0.00 93 1016.9
20260510124131 71 146 0.0 1.0 0.00 0.00 0.00 93 1017.0
20260510123626 71 153 0.0 0.0 0.00 0.00 0.00 95 1016.9
20260510123122 71 154 0.0 0.0 0.00 0.00 0.00 96 1016.7
20260510122619 70 165 0.0 0.0 0.00 0.00 0.00 97 1016.6
20260510122114 70 162 0.0 0.0 0.00 0.00 0.00 97 1016.5
20260510121612 69 99 2.0 2.0 0.00 0.00 0.00 98 1016.4
20260510121109 69 157 0.0 0.0 0.00 0.00 0.00 98 1016.4
20260510120607 69 159 0.0 0.0 0.00 0.00 0.00 98 1016.2
20260510115559 68 164 0.0 0.0 0.00 0.00 0.00 98 1016.1
20260510115056 68 165 0.0 0.0 0.00 0.00 0.00 98 1016.2
20260510114551 68 167 0.0 0.0 0.00 0.00 0.00 98 1016.1
20260510114048 68 173 0.0 0.0 0.00 0.00 0.00 98 1016.1
20260510113543 68 175 0.0 0.0 0.00 0.00 0.00 98 1016.3
20260510113041 68 175 0.0 0.0 0.00 0.00 0.00 98 1016.1
20260510112537 68 175 0.0 0.0 0.00 0.00 0.00 98 1015.8
20260510112034 67 175 0.0 0.0 0.00 0.00 0.00 98 1015.8
20260510111531 67 175 0.0 0.0 0.00 0.00 0.00 98 1015.7
20260510111027 67 175 0.0 0.0 0.00 0.00 0.00 98 1015.7
20260510110523 67 175 0.0 0.0 0.00 0.00 0.00 97 1015.4
20260510110019 67 175 0.0 0.0 0.00 0.00 0.00 98 1015.4
20260510105514 67 175 0.0 0.0 0.00 0.00 0.00 97 1015.2
20260510105010 67 175 0.0 0.0 0.00 0.00 0.00 97 1015.2
20260510104507 67 175 0.0 0.0 0.00 0.00 0.00 97 1015.1
20260510104003 67 175 0.0 0.0 0.00 0.00 0.00 97 1015.3
20260510103500 67 175 0.0 0.0 0.00 0.00 0.00 97 1015.2
20260510102956 67 175 0.0 0.0 0.00 0.00 0.00 97 1015.2
20260510102452 67 175 0.0 0.0 0.00 0.00 0.00 97 1015.0
20260510101948 67 175 0.0 0.0 0.00 0.00 0.00 97 1014.9
20260510101446 68 175 0.0 0.0 0.00 0.00 0.00 97 1014.9
20260510100945 68 175 0.0 0.0 0.00 0.00 0.00 97 1015.1
20260510100440 68 175 0.0 0.0 0.00 0.00 0.00 97 1014.9
20260510095937 68 175 0.0 0.0 0.00 0.00 0.00 97 1014.8
20260510095432 68 175 0.0 0.0 0.00 0.00 0.00 97 1014.8
20260510094932 68 175 0.0 0.0 0.00 0.00 0.00 97 1014.8
20260510094426 68 175 0.0 0.0 0.00 0.00 0.00 97 1014.7
20260510093923 68 175 0.0 0.0 0.00 0.00 0.00 97 1014.6
20260510093418 68 175 0.0 0.0 0.00 0.00 0.00 97 1014.4
20260510092915 68 175 0.0 0.0 0.00 0.00 0.00 97 1014.5
20260510092413 68 175 0.0 0.0 0.00 0.00 0.00 97 1014.4
20260510091912 68 175 0.0 0.0 0.00 0.00 0.00 97 1014.3
20260510091410 68 175 0.0 0.0 0.00 0.00 0.00 97 1014.0
20260510090906 68 175 0.0 0.0 0.00 0.00 0.00 97 1014.2
20260510090403 68 175 0.0 0.0 0.00 0.00 0.00 97 1014.4
20260510085859 68 175 0.0 0.0 0.00 0.00 0.00 97 1014.1
20260510085354 68 175 0.0 0.0 0.00 0.00 0.00 97 1014.1
20260510084849 68 175 0.0 0.0 0.00 0.00 0.00 97 1014.0
20260510084347 69 175 0.0 0.0 0.00 0.00 0.00 97 1013.9
20260510083844 69 175 0.0 0.0 0.00 0.00 0.00 97 1013.6
20260510083340 69 175 0.0 0.0 0.00 0.00 0.00 97 1013.5
20260510082836 69 175 0.0 0.0 0.00 0.00 0.00 97 1013.4
20260510082333 69 175 0.0 0.0 0.00 0.00 0.00 97 1013.4
20260510081832 69 150 0.0 0.0 0.00 0.00 0.00 97 1013.2
20260510081328 69 149 0.0 0.0 0.00 0.00 0.00 97 1013.4
20260510080824 69 123 0.0 0.0 0.00 0.00 0.00 97 1013.4
20260510080319 69 142 0.0 1.0 0.00 0.00 0.00 97 1013.1
20260510075817 69 155 0.0 0.0 0.00 0.00 0.00 97 1013.1
20260510075314 69 150 1.0 1.0 0.00 0.00 0.00 97 1013.2
20260510074810 69 149 0.0 0.0 0.00 0.00 0.00 97 1013.1
20260510074308 69 155 0.0 0.0 0.00 0.00 0.00 97 1013.5
20260510073803 69 166 0.0 0.0 0.00 0.00 0.00 97 1013.5
20260510073300 69 152 0.0 0.0 0.00 0.00 0.00 97 1013.5
20260510072755 69 156 0.0 0.0 0.00 0.00 0.00 97 1013.6
20260510072252 69 156 0.0 0.0 0.00 0.00 0.00 97 1013.7
20260510071748 69 156 0.0 0.0 0.00 0.00 0.00 97 1013.8
20260510071245 69 156 0.0 0.0 0.00 0.00 0.00 97 1013.7
20260510070744 69 156 0.0 0.0 0.00 0.00 0.00 97 1013.4
20260510070241 69 156 0.0 0.0 0.00 0.00 0.00 97 1013.7
20260510065741 69 156 0.0 0.0 0.00 0.00 0.00 97 1013.4
20260510065237 69 156 0.0 0.0 0.00 0.00 0.00 97 1013.6
20260510064734 69 156 0.0 0.0 0.00 0.00 0.00 97 1013.5
20260510064232 69 157 0.0 0.0 0.00 0.00 0.00 97 1013.6
20260510063728 69 157 0.0 0.0 0.00 0.00 0.00 97 1013.7
20260510063225 69 156 0.0 0.0 0.00 0.00 0.00 97 1013.6
20260510062721 69 156 0.0 0.0 0.00 0.00 0.00 97 1013.7
20260510062217 69 144 1.0 1.0 0.00 0.00 0.00 97 1013.8
20260510061712 69 169 0.0 0.0 0.00 0.00 0.00 97 1014.1
20260510061210 69 169 0.0 0.0 0.00 0.00 0.00 96 1014.1
20260510060706 69 169 0.0 0.0 0.00 0.00 0.00 96 1014.3
20260510060203 69 169 0.0 0.0 0.00 0.00 0.00 96 1014.4
20260510055659 69 170 0.0 0.0 0.00 0.00 0.00 96 1014.4
20260510055157 69 170 0.0 0.0 0.00 0.00 0.00 96 1014.3
20260510054653 69 170 0.0 0.0 0.00 0.00 0.00 96 1014.3
20260510054149 69 170 0.0 0.0 0.00 0.00 0.00 96 1014.2
20260510053648 69 170 0.0 0.0 0.00 0.00 0.00 96 1014.0
20260510053145 69 172 1.0 1.0 0.00 0.00 0.00 96 1013.8
20260510052640 69 166 0.0 0.0 0.00 0.00 0.00 96 1013.8
20260510052137 69 166 0.0 0.0 0.00 0.00 0.00 96 1013.8
20260510051633 69 142 0.0 0.0 0.00 0.00 0.00 96 1013.5
20260510051129 69 145 0.0 0.0 0.00 0.00 0.00 96 1013.9
20260510050627 69 143 0.0 0.0 0.00 0.00 0.00 96 1013.8
20260510050124 69 147 0.0 0.0 0.00 0.00 0.00 96 1014.0
20260510045621 69 147 0.0 0.0 0.00 0.56 0.56 96 1013.9
20260510045117 69 147 0.0 0.0 0.00 0.56 0.56 96 1014.4
20260510044613 69 147 0.0 0.0 0.00 0.56 0.56 96 1014.3
20260510044111 69 147 0.0 0.0 0.00 0.56 0.56 96 1014.6
20260510043606 69 147 0.0 0.0 0.00 0.56 0.56 96 1014.4
20260510043103 69 147 0.0 0.0 0.00 0.56 0.56 96 1014.5
20260510042601 70 147 0.0 0.0 0.00 0.56 0.56 96 1014.4
20260510042056 70 147 0.0 0.0 0.00 0.56 0.56 96 1014.5
20260510041554 70 147 0.0 0.0 0.07 0.56 0.56 95 1014.7
20260510041051 70 147 0.0 0.0 0.07 0.56 0.56 95 1014.9
20260510040548 70 147 0.0 0.0 0.07 0.56 0.56 95 1014.8
20260510040044 70 147 0.0 0.0 0.00 0.55 0.55 95 1014.9
20260510035540 70 147 0.0 0.0 0.00 0.55 0.55 95 1014.8
20260510035040 70 147 0.0 0.0 0.00 0.55 0.55 95 1014.8
20260510034538 70 147 0.0 0.0 0.00 0.55 0.55 95 1014.9
20260510034035 70 147 0.0 0.0 0.00 0.55 0.55 95 1014.5
20260510033530 70 147 0.0 0.0 0.00 0.55 0.55 95 1014.6
20260510033029 70 147 0.0 0.0 0.00 0.55 0.55 95 1014.4
20260510032525 70 147 0.0 0.0 0.00 0.55 0.55 95 1014.6
20260510032020 70 148 0.0 0.0 0.00 0.55 0.55 95 1014.7
20260510031515 70 150 0.0 0.0 0.00 0.55 0.55 94 1014.7
20260510031012 70 150 0.0 0.0 0.00 0.55 0.55 94 1014.5
20260510030508 70 150 0.0 0.0 0.00 0.55 0.55 94 1014.1
20260510030005 70 149 0.0 0.0 0.00 0.55 0.55 94 1014.2
20260510025502 70 150 0.0 0.0 0.00 0.55 0.55 94 1013.8
20260510025000 70 168 0.0 0.0 0.00 0.55 0.55 94 1014.2
20260510024456 70 169 0.0 0.0 0.00 0.55 0.55 94 1014.0
20260510023952 70 146 0.0 0.0 0.00 0.55 0.55 94 1013.9
20260510023448 71 144 0.0 0.0 0.00 0.55 0.55 94 1014.0
20260510022945 70 171 1.0 1.0 0.00 0.55 0.55 93 1014.0
20260510022444 70 164 1.0 2.0 0.00 0.55 0.55 93 1014.1
20260510021944 70 165 0.0 0.0 0.00 0.55 0.55 93 1014.2
20260510021442 70 168 1.0 1.0 0.00 0.55 0.55 93 1014.0
20260510020938 70 154 0.0 1.0 0.00 0.55 0.55 93 1014.0
20260510020438 70 168 0.0 1.0 0.00 0.55 0.55 92 1014.1
20260510015935 70 157 0.0 1.0 0.00 0.55 0.55 92 1014.3
20260510015431 70 156 0.0 0.0 0.00 0.55 0.55 92 1014.5
20260510014926 70 157 0.0 0.0 0.00 0.55 0.55 92 1014.5
20260510014424 70 167 0.0 1.0 0.00 0.55 0.55 93 1014.3
20260510013920 70 183 0.0 0.0 0.00 0.55 0.55 93 1014.4
20260510013415 70 161 1.0 2.0 0.00 0.55 0.55 93 1014.6
20260510012910 70 160 0.0 1.0 0.00 0.55 0.55 93 1014.4
20260510012405 70 170 0.0 1.0 0.00 0.55 0.55 93 1014.4
20260510011900 70 174 0.0 0.0 0.00 0.55 0.55 93 1014.5
20260510011355 70 174 0.0 1.0 0.00 0.55 0.55 93 1014.5
20260510010852 70 176 0.0 0.0 0.00 0.55 0.55 93 1014.3
20260510010349 70 157 0.0 0.0 0.00 0.55 0.55 93 1013.9
20260510005846 70 163 1.0 1.0 0.00 0.55 0.55 93 1013.8
20260510005342 70 148 1.0 1.0 0.00 0.55 0.55 93 1013.6
20260510004840 70 160 0.0 0.0 0.00 0.55 0.55 92 1013.7
20260510004337 70 129 0.0 1.0 0.05 0.55 0.55 92 1013.5
20260510003835 70 153 0.0 1.0 0.05 0.55 0.55 92 1013.5
20260510003332 70 152 1.0 1.0 0.00 0.54 0.54 92 1013.5
20260510002830 70 161 1.0 2.0 0.00 0.54 0.54 93 1013.6
20260510002328 70 166 0.0 0.0 0.00 0.54 0.54 94 1013.4
20260510001824 70 181 2.0 2.0 0.00 0.54 0.54 94 1013.3
20260510001323 70 139 1.0 2.0 0.00 0.54 0.54 94 1013.4
20260510000818 69 172 1.0 1.0 0.00 0.54 0.54 94 1013.3
20260510000318 70 148 0.0 0.0 0.00 0.54 0.54 94 1013.5
20260509235813 70 148 0.0 0.0 0.00 0.54 0.54 94 1013.6
20260509235309 70 148 0.0 0.0 0.00 0.54 0.54 94 1013.6
20260509234805 70 148 0.0 0.0 0.00 0.54 0.54 94 1013.6
20260509234302 70 149 0.0 1.0 0.00 0.54 0.54 94 1013.4
20260509233800 70 148 0.0 0.0 0.00 0.54 0.54 94 1013.4
20260509233258 70 148 0.0 0.0 0.00 0.54 0.54 93 1013.2
20260509232753 70 147 0.0 1.0 0.00 0.54 0.54 93 1013.2
20260509232251 70 149 0.0 0.0 0.00 0.54 0.54 93 1013.5
20260509231747 71 149 0.0 0.0 0.00 0.54 0.54 93 1013.9
20260509231244 71 149 0.0 0.0 0.00 0.54 0.54 93 1013.7
20260509230742 71 149 0.0 0.0 0.07 0.54 0.54 92 1013.8
20260509230238 71 149 0.0 0.0 0.07 0.54 0.54 92 1013.6
20260509225733 71 149 0.0 0.0 0.00 0.53 0.53 92 1013.4
20260509225230 71 149 0.0 0.0 0.00 0.53 0.53 92 1013.2
20260509224725 71 149 0.0 0.0 0.00 0.53 0.53 92 1013.3
20260509224223 71 147 1.0 1.0 0.00 0.53 0.53 91 1013.3
20260509223720 71 159 0.0 0.0 0.00 0.53 0.53 91 1013.7
20260509223217 71 159 0.0 0.0 0.00 0.53 0.53 91 1013.5
20260509222713 71 159 0.0 0.0 0.00 0.53 0.53 91 1013.4
20260509222209 71 160 0.0 0.0 0.00 0.53 0.53 90 1013.5
20260509221705 71 160 0.0 0.0 0.00 0.53 0.53 90 1013.2
20260509221201 71 159 0.0 0.0 0.00 0.53 0.53 90 1013.4
20260509220657 71 160 0.0 0.0 0.00 0.53 0.53 89 1013.3